Flag for U.S.A. Weather past 2 weeks in Birmingham, Alabama, U.S.A.

Now
60 °F

Partly sunny.


Feels Like: 60 °F
Forecast: 34 / 57 °F
Wind: 17 mph from Southwest

Location: Birmingham International Airport

Current Time: Jan 25, 2015 at 3:30:59 PM

Latest Report: Jan 25, 2015 at 2:53 PM


Visibility: 10 mi

Pressure: 29.74 "Hg

Humidity: 36%

Dew point: 33 °F

Location of BirminghamLocation

Historic Weather in Birmingham — Graph

°F

Birmingham temperature yesterday

Maximum temperature yesterday: 48 °F (at 2:53 PM)
Minimum temperature yesterday: 33 °F (at 10:53 PM)
Average temperature yesterday: 39 °F

Past Weeks' High & Low Weather Summary

 TemperatureHumidityPressure
High67 °F (Jan 19, 1:53 PM)100% (Jan 12, 6:53 PM)30.51 "Hg (Jan 12, 6:53 PM)
Low25 °F (Jan 16, 5:53 AM)15% (Jan 10, 2:53 PM)29.75 "Hg (Jan 25, 1:53 PM)
Average44 °F70%30.18 "Hg
* Reported Jan 10 1:53 PM — Jan 25 1:53 PM, Birmingham, Weather by CustomWeather, © 2014

Note: Actual official high and low records may vary slightly from our data, if they occured in-between our weather recording intervals... More about our weather records

Advertising

Birmingham weather history for previous 24 hours

 ConditionsComfort  
Time TempWeatherWind HumidityBarometerVisibility
1:53 PM
Jan 25
60 °FPassing clouds.22 mph38%29.75 "Hg10 mi
12:53 PM59 °FSunny.20 mph39%29.78 "Hg10 mi
11:53 AM56 °FSunny.16 mph46%29.83 "Hg10 mi
10:53 AM53 °FSunny.10 mph51%29.88 "Hg10 mi
9:53 AM49 °FSunny.8 mph57%29.91 "Hg10 mi
8:53 AM45 °FSunny.10 mph68%29.93 "Hg10 mi
7:53 AM39 °FPassing clouds.3 mph79%29.96 "Hg10 mi
6:53 AM31 °FSunny.5 mph92%29.94 "Hg10 mi
5:53 AM30 °FClear.3 mph92%29.96 "Hg10 mi
4:53 AM30 °FClear.No wind92%29.97 "Hg10 mi
3:53 AM30 °FClear.No wind92%29.98 "Hg9 mi
2:53 AM31 °FClear.No wind89%29.99 "Hg10 mi
1:53 AM32 °FClear.No wind88%29.99 "Hg10 mi
12:53 AM33 °FClear.No wind88%30.00 "Hg10 mi
11:53 PM
Jan 24
33 °FClear.No wind88%30.01 "Hg10 mi
10:53 PM33 °FClear.No wind88%30.02 "Hg10 mi
9:53 PM34 °FClear.No wind88%30.03 "Hg10 mi
8:53 PM36 °FClear.No wind82%30.02 "Hg10 mi
7:53 PM37 °FClear.No wind76%30.02 "Hg10 mi
6:53 PM43 °FClear.No wind58%30.01 "Hg10 mi
5:53 PM43 °FPassing clouds.5 mph58%30.01 "Hg10 mi
4:53 PM46 °FPassing clouds.8 mph51%30.01 "Hg10 mi
3:53 PM48 °FSunny.9 mph44%29.99 "Hg10 mi
Weather by CustomWeather, © 2014

See weather overviewHow to use our weather pages